Vorticity
13 -1 5 10 0 9 9 8 7 8 8 8 9 8 10 10 10 10 8 10 10 11 12 11 10 9 9 10 3 7 15 8 10 7 5 11 6 6 9 -1 20 11 -11 13 6
10 14 10 4 8 7 10 7 8 6 8 8 9 9 9 10 9 10 11 12 13 12 12 10 12 10 12 8 12 -6 11 5 7 13 3 16 16 22 9 21 -5 5 4 -2 -3
12 8 2 0 -2 4 8 6 10 7 7 8 8 9 7 9 7 9 10 12 12 14 14 10 0 13 12 13 6 19 -1 9 0 9 6 9 2 -13 -1 7 21 8 2 30 3
16 15 14 9 13 6 3 9 4 8 6 9 8 9 9 9 -3 18 10 8 14 3 10 11 11 8 8 2 9 0 14 1 5 14 23 7 5 1 3 7 -3 17 5 0 10
15 13 19 13 9 3 5 5 8 7 8 9 8 8 8 9 4 -9 16 20 11 6 2 9 13 8 7 21 -0 5 -6 9 9 -6 -5 2 -3 -8 7 9 11 -14 26 -5 3
15 17 13 19 17 3 2 4 3 1 9 8 9 9 7 6 5 9 1 24 16 4 4 1 1 6 12 1 10 3 16 2 6 8 13 6 5 6 5 13 9 5 0 3 9
22 21 16 17 18 24 5 5 7 14 7 9 9 8 7 6 6 7 13 -14 12 31 -3 0 -1 -8 2 0 10 4 1 6 13 10 12 23 22 6 16 13 12 11 14 15 11
12 19 18 10 27 12 6 -1 -2 -2 6 11 9 8 8 8 7 11 17 10 6 -9 15 18 14 16 18 2 12 16 21 14 28 14 20 6 2 -12 10 25 29 20 8 10 11
15 22 16 17 22 23 25 8 -3 -3 4 6 9 7 10 7 9 3 3 17 14 13 7 9 6 9 12 -6 13 14 -6 10 -5 16 2 7 -2 4 22 8 9 19 12 21 24
10 12 16 21 43 20 19 26 5 23 15 14 8 10 -14 23 12 5 10 10 14 18 14 0 -0 8 13 8 -5 21 13 4 11 5 9 5 0 -1 -6 -2 -2 -2 -0 10 7
9 6 16 24 8 39 22 30 3 42 13 -14 24 3 -0 -11 19 15 3 4 9 11 12 9 -3 6 6 7 -0 -11 -1 6 2 -4 0 13 15 11 9 5 2 -0 4 6 2
8 3 15 11 20 9 33 22 1 4 4 -8 -4 32 -3 29 8 21 3 8 5 4 4 5 -1 2 3 8 11 10 6 8 12 20 19 14 9 -2 4 12 11 9 8 7 8
17 23 10 17 11 25 24 -1 -12 52 42 9 4 -9 31 -1 14 2 16 4 15 3 8 -4 -2 31 7 7 9 6 6 7 4 2 8 14 35 66 36 31 37 33 27 29 31
4 12 -9 15 2 25 17 7 -3 0 9 30 11 15 -5 25 6 20 13 2 4 15 7 14 -2 2 13 5 5 4 12 13 13 14 5 -5 -10 13 3 -5 4 18 14 19 33
3 2 13 15 12 7 23 23 25 2 3 26 8 6 17 -20 16 3 8 3 12 6 -5 6 16 14 8 8 11 11 8 9 7 7 14 29 8 -9 -0 10 9 4 18 0 15
3 19 37 33 16 12 18 16 40 -16 32 1 37 15 14 11 8 22 3 3 -9 6 8 -7 12 2 11 6 12 -7 15 4 10 12 29 37 -18 20 30 33 36 35 28 -6 8
-15 27 23 38 18 19 28 20 4 -0 30 28 25 25 15 -3 5 8 9 1 -9 2 13 23 6 3 5 5 3 9 -1 15 14 10 -3 -23 41 -54 -50 -24 -24 -1 -1 -1 4
18 39 15 21 20 17 -3 32 -4 31 4 25 31 20 1 6 10 4 18 10 -4 -7 19 11 20 22 17 12 3 18 0 -19 12 2 -11 -40 18 -15 8 2 12 30 24 -6 19
41 20 24 25 15 21 13 -33 18 1 20 17 11 -5 21 -3 21 7 6 6 21 1 -14 9 11 24 5 8 -4 33 16 11 -11 32 38 13 4 3 4 42 62 11 7 17 12
38 15 34 21 22 14 26 -46 -0 34 15 -9 -12 -11 20 2 5 0 12 35 4 18 -12 14 1 19 10 1 9 -21 22 9 8 11 7 12 -2 -23 -19 3 2 23 17 6 5
31 13 20 12 20 19 2 -8 26 29 -4 -6 23 25 20 6 11 -4 20 17 19 24 16 10 3 12 6 23 22 25 0 -1 -1 -12 -8 17 -3 -11 5 8 13 25 -2 -1 7
47 20 13 18 10 13 19 8 18 0 11 14 18 26 29 1 21 -3 6 6 16 22 14 -5 5 7 -7 -2 16 9 5 7 -25 17 5 5 -19 -9 11 15 22 -9 -3 3 9
49 19 19 -11 41 4 4 2 18 -9 2 2 25 11 13 11 16 -2 8 16 10 11 3 16 10 9 20 28 30 5 10 15 8 -1 1 -10 -26 -78 -9 38 7 9 -1 -2 -8
-5 27 -4 17 7 11 6 17 6 1 12 7 5 13 4 3 4 11 8 17 4 7 -7 5 6 -18 -26 -19 -30 -9 2 4 10 -0 8 -1 -3 6 27 26 5 1 -9 10 -8
-1 1 5 26 15 -1 -13 6 7 -6 8 -0 5 14 8 10 9 5 8 13 7 14 15 6 1 6 6 2 3 22 16 11 26 12 8 -12 10 26 21 1 19 15 23 13 9
3 4 30 13 18 2 18 4 -2 3 2 -2 20 -6 1 14 5 22 19 7 3 28 11 10 -1 -5 3 47 11 -5 31 44 45 29 19 13 11 51 32 42 24 20 18 10 8
8 11 11 17 10 11 2 -0 9 2 15 3 5 6 13 6 12 8 10 0 -4 5 17 5 11 -4 33 -26 31 54 -14 28 25 37 27 14 18 10 14 7 3 1 10 11 19
Height
3061 3061 3060 3059 3059 3057 3057 3058 3058 3059 3059 3060 3061 3061 3062 3063 3064 3066 3069 3072 3072 3075 3076 3080 3083 3087 3091 3095 3097 3102 3105 3103 3105 3108 3110 3112 3111 3112 3114 3116 3117 3120 3123 3120 3121
3054 3054 3054 3054 3054 3053 3052 3052 3053 3053 3055 3056 3057 3057 3058 3059 3059 3061 3066 3066 3068 3071 3073 3076 3078 3082 3086 3090 3092 3095 3097 3099 3104 3105 3107 3107 3107 3109 3110 3111 3115 3116 3116 3118 3120
3048 3047 3046 3048 3048 3048 3048 3048 3048 3049 3049 3051 3052 3053 3054 3056 3056 3058 3059 3062 3066 3067 3070 3071 3074 3078 3083 3085 3087 3091 3091 3098 3100 3096 3098 3100 3103 3103 3104 3107 3112 3114 3116 3112 3115
3042 3040 3039 3040 3041 3042 3042 3042 3044 3044 3045 3046 3048 3049 3051 3052 3057 3052 3056 3058 3062 3065 3067 3068 3071 3075 3078 3080 3083 3086 3088 3093 3095 3091 3091 3092 3097 3097 3099 3101 3108 3110 3111 3107 3109
3036 3031 3030 3030 3033 3034 3035 3037 3038 3038 3040 3042 3043 3045 3047 3048 3051 3051 3051 3055 3058 3062 3064 3067 3070 3074 3077 3079 3081 3080 3084 3088 3086 3085 3085 3086 3087 3089 3090 3095 3097 3098 3099 3101 3104
3027 3025 3021 3020 3022 3025 3028 3030 3032 3033 3035 3038 3039 3041 3043 3046 3045 3048 3050 3051 3054 3058 3061 3065 3068 3073 3073 3076 3075 3078 3081 3081 3080 3080 3080 3080 3081 3081 3083 3089 3088 3090 3091 3094 3098
3014 3012 3012 3010 3011 3014 3019 3023 3026 3027 3029 3032 3035 3037 3038 3043 3043 3044 3047 3049 3052 3055 3059 3062 3065 3068 3069 3072 3070 3072 3075 3075 3074 3075 3074 3076 3071 3071 3078 3080 3080 3082 3085 3087 3091
3001 3001 2999 2999 3000 3003 3008 3014 3018 3022 3024 3027 3031 3032 3033 3037 3039 3041 3043 3046 3049 3053 3056 3060 3062 3064 3067 3068 3070 3071 3073 3073 3071 3071 3073 3073 3066 3072 3071 3071 3071 3074 3076 3078 3081
2993 2989 2986 2986 2989 2992 2998 3005 3011 3016 3018 3022 3026 3028 3030 3033 3035 3038 3040 3042 3045 3049 3053 3057 3059 3062 3065 3068 3070 3068 3068 3069 3071 3069 3069 3067 3064 3068 3064 3065 3064 3067 3068 3070 3072
2986 2984 2980 2978 2979 2982 2988 2995 3006 3008 3010 3014 3018 3028 3024 3026 3030 3034 3037 3039 3043 3046 3051 3054 3056 3059 3062 3064 3065 3064 3065 3067 3068 3069 3063 3062 3057 3058 3059 3058 3058 3058 3060 3061 3062
2980 2977 2975 2973 2974 2976 2982 2990 2999 2999 3000 3005 3013 3016 3018 3022 3026 3029 3034 3037 3040 3045 3048 3050 3054 3054 3059 3062 3063 3063 3062 3063 3064 3063 3059 3055 3050 3050 3050 3048 3047 3048 3050 3052 3053
2975 2972 2970 2969 2970 2971 2974 2977 2985 2989 2997 3003 3009 3010 3016 3018 3022 3026 3031 3035 3039 3041 3045 3049 3047 3053 3057 3058 3058 3059 3059 3059 3059 3058 3054 3049 3035 3039 3039 3037 3038 3039 3040 3043 3045
2969 2967 2966 2966 2965 2966 2968 2970 2981 2987 2990 2996 3003 3008 3012 3017 3019 3023 3028 3031 3036 3040 3042 3044 3047 3048 3051 3052 3054 3055 3055 3055 3055 3052 3050 3047 3028 3031 3028 3027 3029 3030 3030 3032 3034
2965 2963 2960 2961 2962 2962 2965 2967 2977 2981 2986 2991 2995 3002 3008 3012 3017 3020 3025 3030 3034 3039 3040 3041 3046 3046 3048 3049 3052 3052 3053 3052 3052 3052 3050 3046 3032 3024 3025 3025 3024 3023 3025 3024 3025
2959 2958 2955 2954 2955 2958 2963 2966 2972 2978 2979 2987 2990 2995 3002 3011 3014 3017 3022 3026 3033 3036 3036 3040 3040 3042 3044 3045 3048 3049 3048 3049 3049 3049 3046 3043 3048 3007 3018 3017 3017 3016 3018 3019 3019
2953 2949 2945 2944 2947 2954 2958 2964 2970 2976 2970 2978 2982 2989 2997 3005 3010 3014 3019 3024 3030 3033 3033 3038 3037 3040 3041 3042 3043 3044 3045 3045 3046 3048 3041 3030 3034 3002 3013 3012 3012 3012 3014 3015 3014
2950 2943 2939 2937 2943 2950 2955 2963 2968 2967 2972 2975 2978 2985 2994 3000 3007 3011 3015 3020 3025 3029 3029 3033 3033 3034 3036 3039 3040 3042 3044 3043 3043 3043 3030 3024 3024 3005 3006 3008 3007 3008 3009 3007 3005
2946 2939 2937 2938 2943 2949 2955 2966 2967 2965 2968 2971 2977 2988 2994 2999 3006 3010 3014 3017 3022 3025 3027 3029 3031 3030 3029 3032 3037 3037 3041 3039 3031 3024 3019 3019 3010 3004 3002 3000 2998 2999 3000 3000 2998
2941 2938 2937 2938 2942 2948 2957 2965 2960 2966 2966 2970 2982 2989 2993 2999 3004 3009 3013 3015 3018 3020 3025 3026 3027 3026 3028 3030 3034 3035 3035 3037 3036 3032 3027 3008 3001 2996 2996 2995 2992 2993 2993 2992 2992
2940 2937 2937 2940 2943 2950 2958 2961 2962 2965 2968 2976 2981 2986 2990 2996 3001 3006 3010 3012 3014 3017 3021 3023 3025 3025 3026 3028 3029 3030 3033 3034 3034 3028 3012 2994 2989 2988 2991 2990 2988 2988 2986 2987 2984
2941 2940 2941 2943 2948 2953 2957 2965 2966 2969 2975 2981 2982 2984 2989 2993 3000 3004 3008 3010 3012 3014 3018 3020 3023 3024 3023 3021 3023 3025 3026 3028 3028 3024 3011 2996 2975 2985 2984 2983 2983 2983 2982 2981 2979
2939 2942 2946 2949 2956 2959 2965 2967 2969 2973 2977 2980 2984 2986 2989 2995 3000 3005 3007 3008 3009 3012 3015 3019 3021 3019 3017 3017 3019 3022 3020 3021 3020 3012 3008 3002 2973 2979 2980 2979 2979 2979 2979 2976 2972
2942 2947 2951 2955 2960 2962 2963 2967 2971 2976 2979 2982 2984 2987 2991 2997 3002 3004 3006 3005 3007 3011 3015 3016 3017 3016 3013 3016 3016 3016 3014 3014 3009 3006 2995 2998 2971 2970 2974 2974 2974 2973 2973 2972 2967
2952 2954 2958 2959 2961 2966 2968 2971 2975 2979 2982 2985 2987 2990 2993 2997 2999 3002 3003 3004 3007 3010 3011 3014 3014 3014 3011 3011 3013 3010 3007 3005 3003 2997 2986 2975 2964 2962 2968 2966 2966 2965 2964 2966 2963
2960 2961 2962 2964 2967 2969 2972 2975 2978 2983 2985 2987 2990 2993 2995 2997 2999 3000 3002 3004 3007 3008 3009 3012 3010 3010 3006 3004 3003 2999 2996 2993 2990 2984 2979 2962 2965 2954 2958 2957 2956 2955 2956 2956 2954
2962 2961 2961 2965 2970 2973 2975 2979 2983 2985 2988 2990 2992 2993 2995 2997 2999 3000 3001 3003 3006 3006 3007 3008 3007 3005 2999 2997 2997 2993 2989 2984 2979 2975 2969 2962 2953 2950 2946 2946 2947 2946 2948 2947 2948
2966 2967 2969 2969 2972 2977 2979 2982 2985 2987 2989 2990 2992 2994 2995 2996 2997 2999 3000 3001 3003 3003 3004 3006 3005 3005 2996 2993 2988 2986 2983 2978 2974 2970 2965 2956 2951 2948 2944 2943 2941 2938 2937 2937 2938